STARLINK-4771 (53833 NORAD) Tracking and Keplerian Element Data

This shows tracking and keplerian element data for the satellite.

Feedback or suggestion? Click here.




ElementValue
Catalog53833
NameSTARLINK-4771
Epoch Orbit1047
Epoch Day325.33334491
Epoch Year2022
RAAN310.6204
Inclination53.2172
Eccentricity0.0001379
Argument of Perigee57.6839
Mean Anonmoly3.0278
Mean Motion15.16048538
Decay Rate-0.01155604
L11 53833U 22114R 22325.33334491 -.01155604 00000+0 -64467-1 0 9997
L22 53833 53.2172 310.6204 0001379 57.6839 3.0278 15.16048538 10471



Live tracking and technical data element details for STARLINK-4771 (NORAD 53833). STARLINK-4771 can be tracked NOW for your location showing map with azimuth and elevation plus other details from your city location.







IsCatalogInMostPopularTable: catalog: 53833, numindb: -1

Insert: records affected: 1


GetName: 53833 STARLINK-4771

Hit Count: inserted at: Thu, 08 Dec 2022 10:32:16 GMT